This is the latest recevied weather packets stored in our database for station/object AD8BV. If no packets are shown the sender has not sent any weather packets the latest 10 day(s).
| Time | Temp. | Humidity | Pressure | Rain* | Wind** | Luminosity | Snow |
|---|---|---|---|---|---|---|---|
| 1777416761 | 15.56° C | 70% | 1014.4 hPa | 0 mm | - | 42 W/m² | - |
| 1777416456 | 15.56° C | 68% | 1014.5 hPa | 0 mm | - | 38 W/m² | - |
| 1777416152 | 15.56° C | 69% | 1014.3 hPa | 0 mm | - | 37 W/m² | - |
| 1777415846 | 15.56° C | 71% | 1014.2 hPa | 0 mm | - | 39 W/m² | - |
| 1777415541 | 15.56° C | 70% | 1014 hPa | 0 mm | - | 40 W/m² | - |
| 1777415238 | 15.56° C | 69% | 1014.2 hPa | 0 mm | - | 41 W/m² | - |
| 1777414933 | 16.11° C | 71% | 1014.2 hPa | 0 mm | - | 43 W/m² | - |
| 1777414633 | 16.11° C | 70% | 1014.1 hPa | 0 mm | - | 42 W/m² | - |
| 1777414328 | 15.56° C | 68% | 1013.9 hPa | 0 mm | - | 44 W/m² | - |
| 1777414023 | 15.56° C | 71% | 1013.8 hPa | 0 mm | - | 48 W/m² | - |
| 1777413717 | 15.56° C | 70% | 1013.4 hPa | 0 mm | - | 52 W/m² | - |
| 1777413414 | 16.11° C | 70% | 1013.9 hPa | 0 mm | - | 111 W/m² | - |
| 1777413110 | 16.11° C | 69% | 1013.9 hPa | 0 mm | - | 218 W/m² | - |
| 1777412804 | 16.67° C | 69% | 1013.6 hPa | 0 mm | - | 95 W/m² | - |
| 1777412499 | 16.11° C | 70% | 1013.5 hPa | 0 mm | - | 177 W/m² | - |
| 1777412196 | 15.56° C | 72% | 1013.4 hPa | 0 mm | - | 320 W/m² | - |
| 1777411893 | 16.67° C | 68% | 1013.6 hPa | 0 mm | - | 192 W/m² | - |
| 1777411591 | 16.11° C | 70% | 1013.5 hPa | 0 mm | - | 235 W/m² | - |
| 1777411287 | 15.56° C | 71% | 1013.7 hPa | 0 mm | - | 218 W/m² | - |
| 1777410986 | 15° C | 72% | 1013.6 hPa | 0 mm | - | 181 W/m² | - |
| 1777410680 | 15.56° C | 70% | 1013.7 hPa | 0 mm | - | 123 W/m² | - |
| 1777410375 | 16.11° C | 68% | 1013.6 hPa | 0 mm | - | 458 W/m² | - |
| 1777410074 | 16.67° C | 69% | 1014 hPa | 0 mm | - | 377 W/m² | - |
| 1777409769 | 15.56° C | 71% | 1014 hPa | 0 mm | - | 453 W/m² | - |
| 1777409465 | 16.11° C | 71% | 1014 hPa | 0 mm | - | 138 W/m² | - |
* Rain latest hour (hover to see other rain measurements)
** Current wind speed in m/s (hover to see current wind gust speed)